Location: Newark
(0.5481°S, 166.9394°E)
Time: 17:27:13
(UTC+00:00)

Hubble Space Telescope - Visible Passes

Search period start: 22 October 2019 00:00
Search period end: 01 November 2019 00:00
Orbit: 536 x 540 km, 28.5° (Epoch: 21 October)

Date Brightness Start Highest point End Pass type
(mag) Time Alt. Az. Time Alt. Az. Time Alt. Az.
22 Oct 1.2 16:55:05 56° SSE 16:55:05 56° SSE 16:59:05 10° ENE visible
23 Oct 2.0 16:45:57 39° ENE 16:45:57 39° ENE 16:48:36 10° ENE visible
24 Oct 3.1 16:36:46 19° NE 16:36:46 19° NE 16:38:00 10° NE visible
